sat.trackr.live / text

‹ back to catalog

STARLINK-34974

NORAD 65221 · 2025-176Z

PAYLOAD ACTIVE UNKNOWN

§ Identity

Operator
Country
US
Launch date
2025-08-14
Launch site
AFETR
Launch vehicle
Mass (kg)
RCS (m²)

Purposes: comms

External: N2YO · Heavens-Above · Gunter

§ Orbital elements

Epoch: 2026-09-20T20:56:26.766528Z

Period
93.85 min
Inclination
53.1609°
Eccentricity
0.0001255
Mean motion
15.34391421 rev/d
Perigee alt
461.9 km
Apogee alt
463.6 km
Semi-major
6,840.9 km
B*
3.9800e-4
RAAN
321.8770°
Arg perigee
87.4230°
Mean anomaly
272.6916°
Rev number
6,306

§ Raw data

STARLINK-349741 65221U 25176Z   26263.87253202  .00013091  00000+0  39800-3 0  99912 65221  53.1609 321.8770 0001255  87.4230 272.6916 15.34391421 63068

JSON: /api/v1/satellites/65221 · /tle

For live sub-satellite position, see the globe view (requires WebGL).

§ Visibility from observer

Set your observer location to see the next 7 days of passes ≥ 10°. The values pass through the URL so the page stays shareable.

No JS? Fill the form by hand. The geolocation button needs JavaScript.